This is the latest recevied weather packets stored in our database for station/object C31FR-13. If no packets are shown the sender has not sent any weather packets the latest 10 day(s).
| Time | Temp. | Humidity | Pressure | Rain* | Wind** | Luminosity | Snow |
|---|---|---|---|---|---|---|---|
| 1777994763 | 12.22° C | 55% | 1010.9 hPa | - | - | - | - |
| 1777994462 | 12.78° C | 50% | 1010.5 hPa | - | - | - | - |
| 1777994162 | 12.78° C | 50% | 1010.3 hPa | - | - | - | - |
| 1777993863 | 13.33° C | 53% | 1010.3 hPa | - | - | - | - |
| 1777993563 | 13.33° C | 53% | 1010.2 hPa | - | - | - | - |
| 1777993262 | 13.33° C | 53% | 1010.1 hPa | - | - | - | - |
| 1777992963 | 13.33° C | 52% | 1010 hPa | - | - | - | - |
| 1777992663 | 13.33° C | 51% | 1009.9 hPa | - | - | - | - |
| 1777992366 | 13.33° C | 50% | 1009.9 hPa | - | - | - | - |
| 1777992063 | 13.33° C | 51% | 1009.9 hPa | - | - | - | - |
| 1777991762 | 13.33° C | 49% | 1009.7 hPa | - | - | - | - |
| 1777991464 | 13.33° C | 48% | 1009.8 hPa | - | - | - | - |
| 1777991163 | 13.33° C | 49% | 1009.9 hPa | - | - | - | - |
| 1777990862 | 13.33° C | 51% | 1009.9 hPa | - | - | - | - |
| 1777990563 | 13.89° C | 49% | 1009.8 hPa | - | - | - | - |
| 1777989962 | 14.44° C | 47% | 1009.8 hPa | - | - | - | - |
| 1777989663 | 13.89° C | 47% | 1009.6 hPa | - | - | - | - |
| 1777989062 | 14.44° C | 45% | 1009.7 hPa | - | - | - | - |
| 1777988763 | 14.44° C | 43% | 1009.4 hPa | - | - | - | - |
| 1777988163 | 14.44° C | 41% | 1009.5 hPa | - | - | - | - |
| 1777987862 | 14.44° C | 41% | 1009.5 hPa | - | - | - | - |
| 1777987562 | 14.44° C | 41% | 1009.5 hPa | - | - | - | - |
| 1777987262 | 15° C | 41% | 1009.6 hPa | - | - | - | - |
| 1777986962 | 14.44° C | 41% | 1009.5 hPa | - | - | - | - |
| 1777986662 | 14.44° C | 41% | 1009.5 hPa | - | - | - | - |
* Rain since midnight (hover to see other rain measurements)
** Current wind speed in m/s (hover to see current wind gust speed)